Стрелка

Россия / Красноярский край     58°04′42″N   93°01′28″E
темп.,
°C
ветер,
м/с
пор.,
м/с
влажн.,
%
обл.,
%
осадки,
мм/ч
давл.,
гПа
погр.,
м
22 октября, пт
пт2201:00+3ююв227769 0.0 101432
04:00+2ю2276100 0.0 101426
07:00+2ююв2274100 0.0 101422
10:00+5ююв1465100 0.0 1013108
13:00+10ююв2550100 0.0 1013270
16:00+10ююв2658100 0.0 1012157
19:00+8юз31362100 0.0 1014381
22:00+8зюз51068100 0.0 10171102
23 октября, сб
сб2301:00+5зюз51167100 0.0 10191319
04:00+4зюз51163100 0.0 10201245
07:00+3юз5116611 0.0 10221094
10:00+3юз51161100 0.0 10221177
13:00+5юз5125188 0.0 10201641
16:00+5юз51349100 0.0 10181696
19:00+4юз61458100 0.0 10171449
22:00+4ююз61369100 0.0 10151102
24 октября, вс
вс2401:00+2ююз61691100 0.3 10121258
04:00+3юз61596100 1.5 10101115
07:00+3юз61496100 1.9 10091065
10:00+4юз61496100 0.3 10091027
13:00+6юз71589100 0.8 10081228
16:00+5зюз61493100 0.7 10091240
19:00+6зюз6128289 1.3 10111191
22:00+5з61279100 0.3 10131211
25 октября, пн
пн2501:00+5з5118389 0.5 10151140
04:00+4зюз5118049 0.5 1016949
07:00+4зюз41082100 0.6 1018903
10:00+4зюз4882100 0.1 1019691
13:00+6юз477299 0.1 1017891
16:00+6ююз4982100 0.0 10141020
19:00+8ююз61578100 0.7 10101156
22:00+8юз71675100 0.0 10091184
26 октября, вт
вт2601:00+8зюз61576100 0.0 10101613
04:00+8з6136741 0.1 10121418
07:00+6з5107254 0.2 10141047
10:00+5з377840 0.1 1016857
13:00+6зюз356899 0.1 1016894
16:00+6ю1472100 0.0 1014589
19:00+6юв2881100 0.1 1011302
22:00+6ююв31185100 0.4 1008318